Regional Weather Roundup
Issued by NWS

Home | Current Version | Previous Version | Text Only | Print | Product List | Glossary On
Versions: 1 2 3 4 5 6 7 8 9 10 11 12 13 14 15 16 17 18 19 20 21 22 23 24 25 26 27 28 29 30 31 32 33 34 35 36 37 38 39 40 41 42 43 44 45 46 47 48 49 50
000
ASUS45 KABQ 262210
RWRNM
NEW MEXICO REGIONAL WEATHER ROUNDUP
NATIONAL WEATHER SERVICE ALBUQUERQUE NM
400 PM MDT THU MAY 26 2016

NOTE: "FAIR" MEANS FEW OR NO CLOUDS BELOW 12,000 FEET AGL WITH NO
       SIGNIFICANT WEATHER OR OBSTRUCTIONS TO VISION.

      THIS PRODUCT IS RELEASED AS TWO VERSIONS.  ONE VERSION NEAR
      THE TOP OF THE HOUR CONTAINING PRELIMINARY DATA FROM ALBUQUERQUE
      AND OTHER STATIONS.  A FINAL VERSION WITH ADDITIONAL DATA IS
      ISSUED ABOUT 10 MINUTES AFTER THE HOUR.

NMZ501-503-504-510>518-262300-
NORTHWEST PLATEAU/NORTHCENTRAL MOUNTAINS

CITY           SKY/WX    TMP DP  RH WIND       PRES   REMARKS
FARMINGTON     FAIR      70  11  10 W18G30    29.85F
LOS ALAMOS     CLOUDY    60  15  17 S12G24    29.94R
SANTA FE       FAIR      67  13  12 W20G26    29.88S
TAOS           FAIR      64  16  15 W24G31    29.88S
ANGEL FIRE     FAIR      61  13  15 SW25G35   29.90S

$$
NMZ402-403-502-505>509-262300-
WESTCENTRAL MOUNTAINS/SOUTHWEST MOUNTAINS

CITY           SKY/WX    TMP DP  RH WIND       PRES   REMARKS
GALLUP         FAIR      63  21  20 W17G29    29.97F
GRANTS         FAIR      61  14  16 W13G29    29.98S
SILVER CITY      N/A     72  10   9 W24G36    29.97F

$$
NMZ407-409-411-412-262300-
SOUTHERN DESERTS

CITY           SKY/WX    TMP DP  RH WIND       PRES   REMARKS
LORDSBURG      FAIR      77  18  10 W20G29    29.91F
DEMING         FAIR      78  17  10 W20G26    29.89F
LAS CRUCES     FAIR      81  14   8 W20G32    29.88F
HOLLOMAN AFB   FAIR      80  13   8 W23G32    29.84F
ALAMOGORDO     FAIR      81  16   9 W17G29    29.86F
T OR C         FAIR      77   8   7 W15G26    29.86F

$$
NMZ519>523-262300-
CENTRAL VALLEYS/CENTRAL HIGHLANDS

CITY           SKY/WX    TMP DP  RH WIND       PRES   REMARKS
ALBUQUERQUE    PTSUNNY   72  14  11 W17G31    29.85F
DOUBLE EAGLE   PTSUNNY   72  12  10 SW25G31   29.89F
MORIARTY ARPT  FAIR      69   7   8 SW17G23   29.89F
CLINES CORNERS FAIR      67  11  11 SW26G32   29.90F
BELEN          FAIR      74  10   8 SW20G26   29.86S
SOCORRO        FAIR      78  10   7 SW14G21   29.83F

$$
NMZ524>526-539-540-262300-
SOUTHCENTRAL MOUNTAINS

CITY           SKY/WX    TMP DP  RH WIND       PRES   REMARKS
RUIDOSO          N/A     66  10  11 SW23G41   29.98F

$$
NMZ527>531-262300-
NORTHEAST HIGHLANDS/NORTHEAST PLAINS

CITY           SKY/WX    TMP DP  RH WIND       PRES   REMARKS
LAS VEGAS      FAIR      67  10  11 SW31G44   29.87F
RATON          FAIR      71  13  10 SW21G37   29.75F
CLAYTON        FAIR      81  15   8 S29G43    29.73

$$
NMZ532>537-262300-
EASTCENTRAL PLAINS

CITY           SKY/WX    TMP DP  RH WIND       PRES   REMARKS
TUCUMCARI      FAIR      87  13   6 SW26G35   29.72F
CANNON AFB     NOT AVBL
CLOVIS AIRPORT FAIR      84  25  11 SW30      29.76F

$$
NMZ028-029-538-262300-
SOUTHEAST PLAINS

CITY           SKY/WX    TMP DP  RH WIND       PRES   REMARKS
ROSWELL        FAIR      87  16   7 SW23G36   29.76F
ARTESIA        FAIR      88  23   9 SW26G37   29.78F
CARLSBAD       FAIR      92  22   8 SW24G32   29.74F
HOBBS          SUNNY     90  19   7 SW25G37   29.77F


$$




USA.gov is the U.S. government's official web portal to all federal, state and local government web resources and services.